Location: Sevilla
(37.3933°N, 5.9839°W)
Time: 06:12:10
(UTC+02:00)

Vanguard 3 - Pass Details

Date: 30 June 2024
Orbit: 508 x 3231 km, 33.4° (Epoch: 15 July)

Event Time Altitude Azimuth Distance (km) Brightness Sun altitude
Rises 12:07:30 0° 272° (W) 6,046 11.3 56.8°
Reaches altitude 10° 12:12:12 10° 270° (W) 4,604 10.8 57.7°
Maximum altitude 12:23:36 63° 193° (SSW) 1,460 9.5 59.8°
Drops below altitude 10° 12:29:53 10° 113° (ESE) 2,631 10.4 61.0°
Sets 12:31:55 0° 110° (ESE) 3,346 10.7 61.4°
